Date String (YYYY-MM-DD hh:mm:ss) UTC,Instrument flags,absolute air pressure of the measurement (hPa),sample flow rate (lpm),inlet stack bypass flow (lpm),air temperature of the measurement (°C),ambient temperature measured by the external sensor (°C),aerosol sample conditioner tube jacket temperature (°C),OPC LED temperature (°C),internal box temperature (°C),relative humidity of the measurement (%),span deviation,mass concentration of particles derived from Lorenz-Mie calculation of OPC scattering (μg/m³),mass concentration of particles derived from Lorenz-Mie calculation of OPC scattering (μg/m³),mass concentration of particles derived from Lorenz-Mie calculation of OPC scattering (μg/m³)
DateTimeUTC,F1_M11,P_M11,Q1_M11,Q2_M11,T1_M11,T2_M11,T3_M11,T4_M11,T5_M11,U1_M11,ZSPAN_M11,X0_M11,X2_M11,X1_M11
2024-04-02 15:00:00,SystemResetWarning,0832.7,5.01,000.00,018.3,017.5,000.0,026.8,020.0,23.6,0000.0,0001.99,0001.44,0001.17
2024-04-02 15:01:00,SystemResetWarning,0832.8,5.00,000.00,018.3,017.5,000.0,026.8,020.0,24.4,0000.0,0002.00,0001.46,0001.19
2024-04-02 15:02:00,SystemResetWarning,0832.7,5.00,000.00,018.3,017.5,000.0,026.9,020.0,24.7,0000.0,0002.07,0001.49,0001.22
2024-04-02 15:03:00,SystemResetWarning,0832.8,5.00,000.00,018.3,017.5,000.0,026.8,020.0,24.8,0000.0,0002.09,0001.52,0001.26
2024-04-02 15:04:00,SystemResetWarning,0832.8,5.01,000.00,018.3,017.5,000.0,026.9,020.0,24.1,0000.0,0002.14,0001.56,0001.29
2024-04-02 15:05:00,SystemResetWarning,0832.8,5.00,000.00,018.3,017.5,000.0,026.9,020.0,24.1,0000.0,0002.34,0001.63,0001.33
2024-04-02 15:06:00,SystemResetWarning,0832.8,5.00,000.00,018.3,017.5,000.0,026.9,020.0,24.7,0000.0,0002.51,0001.68,0001.36
2024-04-02 15:07:00,SystemResetWarning,0832.8,4.99,000.00,018.3,017.5,000.0,026.9,020.0,23.6,0000.0,0003.06,0001.72,0001.40
2024-04-02 15:08:00,SystemResetWarning,0832.8,5.00,000.00,018.3,017.5,000.0,026.9,020.0,24.4,0000.0,0003.75,0001.78,0001.43
2024-04-02 15:09:00,SystemResetWarning,0832.8,4.99,000.00,018.3,017.5,000.0,026.8,020.0,25.4,0000.0,0003.69,0001.80,0001.46
2024-04-02 15:10:00,SystemResetWarning,0832.7,5.00,000.00,018.3,017.5,000.0,026.8,020.0,24.8,0000.0,0003.73,0001.81,0001.48
2024-04-02 15:11:00,SystemResetWarning,0832.8,5.00,000.00,018.3,017.5,000.0,026.8,020.0,25.3,0000.0,0004.01,0001.89,0001.52
2024-04-02 15:12:00,SystemResetWarning,0832.8,5.00,000.00,018.3,017.5,000.0,026.9,020.0,25.5,0000.0,0004.15,0001.96,0001.55
2024-04-02 15:13:00,SystemResetWarning,0832.8,5.01,000.00,018.3,017.6,000.0,026.8,020.0,26.7,0000.0,0004.23,0001.99,0001.58
2024-04-02 15:14:00,SystemResetWarning,0832.8,5.01,000.00,018.3,017.6,000.0,026.8,020.0,26.7,0000.0,0004.26,0002.01,0001.59
2024-04-02 15:15:00,SystemResetWarning,0832.9,5.00,000.00,018.3,017.6,000.0,026.8,020.0,25.6,0000.0,0004.29,0002.03,0001.60
2024-04-02 15:16:00,SystemResetWarning,0832.9,5.00,000.00,018.3,017.6,000.0,026.8,020.0,24.1,0000.0,0004.24,0002.03,0001.60
2024-04-02 15:17:00,SystemResetWarning,0832.8,5.00,000.00,018.3,017.6,000.0,026.8,020.0,23.2,0000.0,0004.21,0002.05,0001.62
2024-04-02 15:18:00,SystemResetWarning,0832.7,5.00,000.00,018.3,017.7,000.0,026.8,020.0,25.0,0000.0,0003.88,0002.05,0001.61
2024-04-02 15:19:00,SystemResetWarning,0832.8,5.00,000.00,018.3,017.7,000.0,026.8,020.0,24.6,0000.0,0003.07,0002.03,0001.61
2024-04-02 15:20:00,SystemResetWarning,0832.7,5.01,000.00,018.3,017.7,000.0,026.8,020.0,22.3,0000.0,0003.09,0002.04,0001.60
2024-04-02 15:21:00,SystemResetWarning,0832.9,5.00,000.00,018.3,017.7,000.0,026.8,020.0,22.7,0000.0,0003.05,0002.03,0001.59
2024-04-02 15:22:00,SystemResetWarning,0832.7,5.00,000.00,018.3,017.7,000.0,026.8,020.0,24.3,0000.0,0003.29,0001.98,0001.57
2024-04-02 15:23:00,SystemResetWarning,0832.8,5.00,000.00,018.3,017.7,000.0,026.8,020.0,23.4,0000.0,0003.34,0001.94,0001.55
2024-04-02 15:24:00,SystemResetWarning,0832.8,5.00,000.00,018.3,017.7,000.0,026.8,020.0,22.8,0000.0,0004.62,0001.92,0001.53
2024-04-02 15:25:00,SystemResetWarning,0832.8,5.00,000.00,018.3,017.7,000.0,026.8,020.0,21.1,0000.0,0004.66,0001.88,0001.51
2024-04-02 15:26:00,SystemResetWarning,0832.8,5.00,000.00,018.3,017.7,000.0,026.8,020.0,21.6,0000.0,0004.71,0001.89,0001.50
2024-04-02 15:27:00,SystemResetWarning,0832.7,5.01,000.00,018.3,017.7,000.0,026.8,020.0,22.0,0000.0,0004.67,0001.88,0001.49
2024-04-02 15:28:00,SystemResetWarning,0832.8,5.00,000.00,018.3,017.7,000.0,026.8,020.0,23.1,0000.0,0004.60,0001.86,0001.49
2024-04-02 15:29:00,SystemResetWarning,0832.8,5.00,000.00,018.3,017.7,000.0,026.8,020.0,22.2,0000.0,0004.66,0001.87,0001.50
2024-04-02 15:30:00,SystemResetWarning,0832.8,5.00,000.00,018.3,017.7,000.0,026.8,020.0,23.0,0000.0,0004.68,0001.89,0001.52
2024-04-02 15:31:00,SystemResetWarning,0832.8,5.00,000.00,018.3,017.7,000.0,026.8,020.0,24.3,0000.0,0004.71,0001.91,0001.54
2024-04-02 15:32:00,SystemResetWarning,0832.9,4.99,000.00,018.3,017.7,000.0,026.8,020.0,23.3,0000.0,0004.91,0002.00,0001.59
2024-04-02 15:33:00,SystemResetWarning,0833.0,5.00,000.00,018.3,017.7,000.0,026.8,020.0,22.6,0000.0,0004.61,0002.06,0001.63
2024-04-02 15:34:00,SystemResetWarning,0833.1,5.00,000.00,018.3,017.7,000.0,026.8,020.0,22.4,0000.0,0004.36,0002.08,0001.67
2024-04-02 15:35:00,SystemResetWarning,0833.1,5.00,000.00,018.3,017.7,000.0,026.8,020.0,22.2,0000.0,0003.27,0002.11,0001.71
2024-04-02 15:36:00,SystemResetWarning,0833.0,5.01,000.00,018.3,017.7,000.0,026.8,020.0,22.0,0000.0,0002.97,0002.15,0001.74
2024-04-02 15:37:00,SystemResetWarning,0833.2,5.00,000.00,018.3,017.7,000.0,026.8,020.0,23.1,0000.0,0004.31,0002.17,0001.77
2024-04-02 15:38:00,SystemResetWarning,0833.3,4.99,000.00,018.3,017.7,000.0,026.8,020.0,22.9,0000.0,0004.94,0002.22,0001.79
2024-04-02 15:39:00,SystemResetWarning,0833.0,4.99,000.00,018.3,017.7,000.0,026.8,020.0,20.9,0000.0,0005.38,0002.27,0001.81
2024-04-02 15:40:00,SystemResetWarning,0832.9,5.00,000.00,018.3,017.7,000.0,026.8,020.0,20.8,0000.0,0005.40,0002.30,0001.81
2024-04-02 15:41:00,SystemResetWarning,0832.9,5.00,000.00,018.3,017.7,000.0,026.8,020.0,20.9,0000.0,0005.59,0002.35,0001.81
2024-04-02 15:42:00,SystemResetWarning,0832.9,5.00,000.00,018.3,017.7,000.0,026.8,020.0,19.6,0000.0,0005.81,0002.40,0001.81
2024-04-02 15:43:00,SystemResetWarning,0833.0,5.00,000.00,018.3,017.7,000.0,026.8,020.0,21.4,0000.0,0005.76,0002.36,0001.78
2024-04-02 15:44:00,SystemResetWarning,0833.0,5.01,000.00,018.3,017.7,000.0,026.8,020.0,20.2,0000.0,0005.84,0002.35,0001.75
2024-04-02 15:45:00,SystemResetWarning,0833.1,5.00,000.00,018.3,017.8,000.0,026.8,020.0,20.7,0000.0,0006.09,0002.39,0001.73
2024-04-02 15:46:00,SystemResetWarning,0833.3,4.99,000.00,018.3,017.8,000.0,026.8,020.0,20.7,0000.0,0006.30,0002.39,0001.69
2024-04-02 15:47:00,SystemResetWarning,0833.2,4.99,000.00,018.3,017.8,000.0,026.8,020.0,21.2,0000.0,0007.37,0002.40,0001.68
2024-04-02 15:48:00,SystemResetWarning,0833.0,4.99,000.00,018.3,017.8,000.0,026.8,020.1,20.9,0000.0,0006.44,0002.39,0001.67
2024-04-02 15:49:00,SystemResetWarning,0833.1,5.00,000.00,018.3,017.8,000.0,026.8,020.1,20.9,0000.0,0005.89,0002.44,0001.66
2024-04-02 15:50:00,SystemResetWarning,0833.3,5.01,000.00,018.3,017.8,000.0,026.8,020.1,20.3,0000.0,0005.48,0002.43,0001.66
2024-04-02 15:51:00,SystemResetWarning,0833.1,5.01,000.00,018.3,017.8,000.0,026.8,020.1,21.0,0000.0,0005.36,0002.40,0001.67
2024-04-02 15:52:00,SystemResetWarning,0833.3,5.00,000.00,018.3,017.8,000.0,026.8,020.1,20.7,0000.0,0005.38,0002.39,0001.68
2024-04-02 15:53:00,SystemResetWarning,0833.4,4.99,000.00,018.4,017.8,000.0,026.8,020.1,21.8,0000.0,0005.42,0002.37,0001.69
2024-04-02 15:54:00,SystemResetWarning,0833.1,5.00,000.00,018.4,017.8,000.0,026.8,020.1,18.7,0000.0,0005.52,0002.34,0001.69
2024-04-02 15:55:00,SystemResetWarning,0833.0,5.00,000.00,018.4,017.8,000.0,026.8,020.1,18.1,0000.0,0005.97,0002.38,0001.72
2024-04-02 15:56:00,SystemResetWarning,0833.1,5.00,000.00,018.4,017.8,000.0,026.8,020.1,18.2,0000.0,0006.34,0002.44,0001.74
2024-04-02 15:57:00,SystemResetWarning,0833.1,5.00,000.00,018.4,017.8,000.0,026.8,020.1,19.0,0000.0,0006.22,0002.44,0001.76
2024-04-02 15:58:00,SystemResetWarning,0833.1,5.00,000.00,018.4,017.8,000.0,026.8,020.1,18.1,0000.0,0005.64,0002.48,0001.76
2024-04-02 15:59:00,SystemResetWarning,0833.1,5.00,000.00,018.4,017.8,000.0,026.8,020.1,18.2,0000.0,0005.43,0002.52,0001.76
